TITAN 3C TRANSTAGE DEB, 39299

Orbit data source: Space-Track

TITAN 3C TRANSTAGE DEB, 39299 is space debris in GEO originally from a launch on Thu, 26 Sep 1968 UTC launched from the Air Force Eastern Test Range (AFETR). Debris objects in space refer to the collection of defunct objects orbiting the Earth. Examples of debris include non-operational satellites, rocket bodies, and fragments generated from explosions, collisions, or faulty payload assembly.

Not visible in the next 10 days
Identifier
39299, 1968-081AK
Orbit
GEO
Country
Flag of USUS
Related business
Manufacturer
Unknown
Mission
Spacecraft
Bus & Motor
Unknown
Mass
Unknown
Launch date (UTC)
1968-09-26 (58 years ago)
Launch vehicle
Unknown
Launch site
Air Force Eastern Test Range (AFETR)
Object type
Payload
Rocket body
Debris
Shape & HBR
Unknown shape, 1.1 m
Radar Cross Section
Medium (>0.1 m² and <1 m²)

Expand to show TLE details & history
Last TLE update: 6 months ago

TLE from 6 months ago
0 TITAN 3C TRANSTAGE DEB
1 39299U 68081AK  26076.86243257 -.00000075  00000-0  00000-0 0  9996
2 39299   1.4395  20.4788 0164323  23.2172 150.1221  1.00443730 66254
Epoch: 2026-03-17T20:41Z
TLE epoch observation values (Epoch: 2026-03-17T20:41:54.174Z)
Latitude
0.15562°
Longitude
68.83304°
Altitude
36,342.044 km
Speed
3.033 km/s
True Right ascension
12h 58m 58s
True Declination
0° 09' 20"
Sunlit
Object was in daylight at epoch
Visualization orbit readout
Latitude
Unknown
Longitude
Unknown
Altitude
Unknown
Speed
Unknown
Apparent Right ascension
Unknown
Apparent Declination
Unknown
Sunlit
N/A
Visualization observer readout
Local Sidereal Time
05:05:35
Azimuth
Unknown
Elevation
Unknown
Doppler factor
Unknown
Orbital elements
Apogee altitude
36,431.622 km
Perigee altitude
35,047.442 km
Semi-major axis
42,117.669 km
Eccentricity
0.01643
Inclination
1.4395°
RAAN
20.4788°
Arg. of periapsis
23.2172°
True anomaly
151.04366°
Mean anomaly
150.1221°
Eccentric anomaly
150.58451°
Mean motion
0.2511 °/min
Orbital period
1,433.69 mins
BSTAR
0
Loading maneuver chart data...
Computing Atmospheric mass density...

Documentation

Showing up to 5 results
|